Stations météo

réclame
Mon MeteoGroup
Brodersby-Schönhagen, Allemagne (10042): Température de l'air & dewpoint: 15.06.2018 17:00:00 - 21.06.2018 17:00:00 (CEST)Brodersby-Schönhagen, Allemagne (10042): Température de l'air 5cm & Température de l'air -5cm: 15.06.2018 17:00:00 - 21.06.2018 17:00:00 (CEST)Brodersby-Schönhagen, Allemagne (10042): Température de l'air -20cm & Température de l'air -100cm: 15.06.2018 17:00:00 - 21.06.2018 17:00:00 (CEST)Brodersby-Schönhagen, Allemagne (10042): Vitesse du vent & gusts: 15.06.2018 17:00:00 - 21.06.2018 17:00:00 (CEST)Brodersby-Schönhagen, Allemagne (10042): Direction du vent: 15.06.2018 17:00:00 - 21.06.2018 17:00:00 (CEST)Brodersby-Schönhagen, Allemagne (10042): reduced air pressure: 15.06.2018 17:00:00 - 21.06.2018 17:00:00 (CEST)Brodersby-Schönhagen, Allemagne (10042): visibility: 15.06.2018 17:00:00 - 21.06.2018 17:00:00 (CEST)Brodersby-Schönhagen, Allemagne (10042): Ensoleillement: 15.06.2018 17:00:00 - 21.06.2018 17:00:00 (CEST)Brodersby-Schönhagen, Allemagne (10042): Quantités de précipitations: 15.06.2018 17:00:00 - 21.06.2018 17:00:00 (CEST)
Date & Time tt [°C] td [°C] tt 5cm [°C] tt -5cm [°C] tt -20cm [°C] tt -100cm [°C] ff [km/h] ff [knt] fx [km/h] fx [knt] dd ppp [hPa] vv [km] sd [min] rr [mm]
21.06.2018 17:00:00 13,3 10,1 14,5 15,9 17,0 15,9 27 15 44 24 W 1011,9 - 25 0,2
21.06.2018 16:00:00 10,9 9,6 10,6 15,0 17,2 15,9 23 12 40 22 W 1011,5 - 0 0,5
21.06.2018 15:00:00 10,5 9,3 10,4 15,4 17,4 15,9 18 10 45 25 W 1010,9 - 0 1,9
21.06.2018 14:00:00 11,4 9,8 11,3 16,0 17,6 15,9 21 11 37 20 WNW 1010,0 - 0 0,4
21.06.2018 13:00:00 11,7 9,8 11,6 16,6 17,6 15,9 12 6 41 22 NW 1009,3 - 0 0,3
21.06.2018 12:00:00 13,6 9,8 14,9 17,2 17,7 15,9 26 14 40 22 NW 1009,0 - 7 0,0
21.06.2018 11:00:00 13,2 9,6 13,3 16,6 17,8 15,9 17 9 23 12 W 1009,4 - 0 0,0
21.06.2018 10:00:00 13,3 9,7 13,7 16,5 17,9 15,8 13 7 22 12 W 1009,4 - 0 0,0
21.06.2018 09:00:00 12,9 9,5 13,0 16,3 18,1 15,8 13 7 22 12 WNW 1009,9 - 0 0,0
21.06.2018 08:00:00 12,7 9,8 12,4 16,4 18,3 15,8 15 8 24 13 WNW 1010,3 - 2 0,0
21.06.2018 07:00:00 12,4 10,8 11,9 16,3 18,6 15,8 9 5 20 11 WNW 1010,7 - 0 0,1
21.06.2018 06:00:00 12,5 10,9 11,8 16,7 19,0 15,8 10 5 29 16 W 1011,1 - 0 0,2
21.06.2018 05:00:00 13,6 11,9 12,9 17,4 19,3 15,8 18 10 34 18 WNW 1011,2 - 0 0,1
21.06.2018 04:00:00 14,9 13,8 14,2 18,0 19,6 15,8 17 9 29 15 W 1011,3 - 0 0,2
21.06.2018 03:00:00 15,7 14,7 15,0 18,5 19,9 15,8 18 10 31 17 WSW 1011,8 - 0 0,1
21.06.2018 02:00:00 16,2 15,7 15,7 19,0 20,2 15,8 18 10 35 19 WSW 1012,3 - 0 0,4
21.06.2018 01:00:00 17,0 15,5 16,7 19,5 20,5 15,8 17 9 28 15 WSW 1012,9 - 0 0,0
21.06.2018 00:00:00 17,2 15,3 16,9 20,0 20,8 15,8 19 10 39 21 WSW 1013,4 - 0 0,0
20.06.2018 23:00:00 17,4 15,2 16,5 20,5 21,2 15,8 18 10 31 17 WSW 1013,8 - 0 0,0
20.06.2018 22:00:00 17,9 15,0 17,2 21,5 21,5 15,8 17 9 32 18 W 1014,3 - 3 0,0
20.06.2018 21:00:00 18,7 15,2 18,3 22,8 21,7 15,8 25 13 48 26 W 1014,2 - 13 0,0
20.06.2018 20:00:00 19,8 16,0 20,1 24,0 21,8 15,8 30 16 49 26 W 1014,7 - 4 0,0
20.06.2018 19:00:00 21,3 16,0 21,9 25,2 21,7 15,8 32 17 51 28 WSW 1015,0 - 24 0,0
20.06.2018 18:00:00 22,5 17,2 23,9 26,0 21,4 15,8 30 16 48 26 WSW 1015,3 - 50 0,0
20.06.2018 17:00:00 23,1 16,9 23,4 26,2 21,0 15,8 27 15 58 32 WSW 1015,7 - 23 0,0
20.06.2018 16:00:00 23,8 16,3 26,0 26,6 20,5 15,8 36 19 52 28 WSW 1016,1 - 37 0,0
20.06.2018 15:00:00 23,8 16,1 25,9 26,0 19,9 15,8 39 21 55 30 WSW 1016,2 - 33 0,0
20.06.2018 14:00:00 23,3 16,9 24,7 25,7 19,2 15,8 30 16 48 26 WSW 1017,1 - 34 0,0
20.06.2018 13:00:00 23,1 16,6 25,1 24,7 18,4 15,8 33 18 50 27 WSW 1017,8 - 45 0,0
20.06.2018 12:00:00 22,6 16,4 24,5 23,3 17,7 15,8 32 17 45 25 WSW 1018,0 - 57 0,0
20.06.2018 11:00:00 21,4 15,5 23,1 21,0 17,1 15,8 33 18 45 25 SW 1018,4 - 60 0,0
20.06.2018 10:00:00 19,9 15,0 21,4 18,4 16,7 15,8 29 16 41 22 SW 1018,7 - 49 0,0
20.06.2018 09:00:00 17,0 13,7 17,5 16,4 16,7 15,8 23 12 37 20 SSW 1019,3 - 0 0,0
20.06.2018 08:00:00 15,4 12,0 15,7 15,6 16,7 15,8 23 12 32 18 SSW 1019,8 - 1 0,0
20.06.2018 07:00:00 13,5 10,8 13,6 15,1 16,8 15,8 12 6 19 10 SSW 1020,3 - 0 0,0
20.06.2018 06:00:00 12,6 10,8 12,5 15,0 17,0 15,8 11 6 16 9 SSW 1020,7 - 0 0,0
20.06.2018 05:00:00 12,2 10,8 12,0 15,0 17,3 15,8 6 3 14 7 SSW 1021,0 - 0 0,0
20.06.2018 04:00:00 11,9 10,6 11,6 15,0 17,5 15,8 6 4 10 6 SSW 1021,1 - 0 0,0
20.06.2018 03:00:00 11,3 10,5 10,9 15,1 17,9 15,8 4 2 9 5 SSW 1021,6 - 0 0,0
20.06.2018 02:00:00 9,8 9,2 7,2 15,3 18,4 15,8 6 3 10 6 SW 1022,0 - 0 0,0
20.06.2018 01:00:00 10,5 9,4 9,3 16,1 18,9 15,8 8 5 11 6 SW 1022,1 - 0 0,0
20.06.2018 00:00:00 10,9 9,6 9,0 16,9 19,3 15,8 8 4 13 7 WSW 1022,3 - 0 0,0
19.06.2018 23:00:00 12,0 9,7 10,7 18,1 19,8 15,8 11 6 17 9 W 1022,4 - 0 0,0
19.06.2018 22:00:00 13,5 10,0 12,3 19,4 20,1 15,8 12 6 24 13 W 1021,8 - 19 0,0
19.06.2018 21:00:00 15,2 9,7 14,9 20,9 20,3 15,9 19 11 33 18 W 1021,6 - 51 0,0
19.06.2018 20:00:00 16,5 8,8 17,1 22,2 20,3 15,9 21 12 35 19 W 1021,4 6 60 0,0
19.06.2018 19:00:00 17,3 8,5 18,5 23,3 20,1 15,9 23 12 40 22 W 1021,1 9 60 0,0
19.06.2018 18:00:00 18,1 8,8 19,5 24,0 19,7 15,9 28 15 44 24 W 1021,0 4,7 60 0,0
19.06.2018 17:00:00 18,8 10,1 20,8 24,2 19,2 15,9 29 15 44 24 W 1020,6 4,3 60 0,0
19.06.2018 16:00:00 19,6 10,8 22,2 23,6 18,7 15,9 29 16 44 24 W 1019,9 5 54 0,0
19.06.2018 15:00:00 19,2 10,4 21,4 22,8 18,1 15,9 34 18 49 26 W 1019,7 6 54 0,0
19.06.2018 14:00:00 20,0 12,2 21,9 21,6 17,6 15,9 32 17 47 26 W 1019,2 6 53 0,0
19.06.2018 13:00:00 20,2 14,4 23,2 19,8 17,3 15,9 24 13 39 21 W 1018,8 10 28 0,0
19.06.2018 12:00:00 18,0 13,5 18,7 18,9 17,1 15,9 22 12 32 17 WSW 1018,7 9 19 0,0
19.06.2018 11:00:00 16,7 14,4 16,2 17,8 16,9 15,9 21 12 37 20 W 1018,4 9 0 0,1
19.06.2018 10:00:00 17,4 14,8 17,7 18,0 16,7 15,9 21 11 39 21 WSW 1017,6 10 17 0,0
19.06.2018 09:00:00 17,5 14,7 18,1 17,1 16,5 15,9 27 15 40 22 WSW 1017,0 5 11 0,0
19.06.2018 08:00:00 17,0 14,3 17,0 16,3 16,5 15,9 23 12 44 24 WSW 1016,6 12 7 0,0
19.06.2018 07:00:00 16,4 14,3 16,2 15,7 16,5 15,9 21 11 33 18 SW 1016,0 9 2 0,0
19.06.2018 06:00:00 15,7 14,0 15,4 15,5 16,6 15,9 17 9 27 14 SW 1016,3 9 0 0,0
19.06.2018 05:00:00 15,1 14,0 14,6 15,4 16,8 15,9 18 10 25 13 SW 1016,1 10 0 0,0
19.06.2018 04:00:00 15,1 13,9 14,4 15,5 16,9 16,0 17 9 26 14 WSW 1016,3 12 0 0,0
19.06.2018 03:00:00 14,9 13,5 13,8 15,7 17,1 16,0 14 8 32 18 SW 1016,6 11 0 0,0
19.06.2018 02:00:00 15,2 13,5 14,4 16,0 17,3 16,0 18 10 29 15 WSW 1016,6 12 0 0,0
19.06.2018 01:00:00 16,0 14,1 15,4 16,2 17,4 16,0 20 11 32 18 WSW 1016,7 13 0 0,0
19.06.2018 00:00:00 15,7 14,2 14,7 16,5 17,6 16,0 15 8 26 14 SW 1016,7 11 0 0,0
18.06.2018 23:00:00 16,1 14,1 15,2 16,9 17,8 16,0 14 7 24 13 SW 1016,7 12 0 0,0
18.06.2018 22:00:00 16,3 13,2 15,5 17,4 17,9 16,0 13 7 32 17 W 1016,4 21 4 0,0
18.06.2018 21:00:00 17,4 13,5 17,0 18,0 18,0 16,0 21 11 30 16 W 1016,3 15 0 0,0
18.06.2018 20:00:00 18,0 14,0 17,5 18,5 18,0 16,0 21 11 31 17 WSW 1016,3 20 2 0,0
18.06.2018 19:00:00 17,8 15,1 17,6 18,8 18,0 16,0 18 10 31 17 WSW 1016,4 18 0 0,0
18.06.2018 18:00:00 17,9 15,4 18,4 19,0 17,9 16,0 19 10 30 16 SSW 1016,5 8 2 0,0
18.06.2018 17:00:00 17,1 15,0 17,4 19,0 17,8 16,0 22 12 33 18 SSW 1017,0 9 0 0,0
18.06.2018 16:00:00 16,8 14,3 16,3 18,9 17,7 16,0 24 13 36 19 SW 1017,4 7 2 0,2
18.06.2018 15:00:00 16,3 14,6 15,7 18,5 17,6 16,0 20 11 40 21 SW 1017,6 5 0 0,0
18.06.2018 14:00:00 18,1 13,1 18,5 18,8 17,5 16,0 22 12 38 20 SW 1017,0 9 0 0,0
18.06.2018 13:00:00 18,1 12,3 18,8 18,8 17,2 16,0 23 12 35 19 SW 1017,3 11 0 0,0
18.06.2018 12:00:00 17,7 12,0 17,9 19,3 16,9 16,0 22 12 34 19 SW 1017,3 17 21 0,0
18.06.2018 11:00:00 18,2 11,8 20,4 18,2 16,6 16,1 26 14 36 19 SW 1017,2 7 26 0,0
18.06.2018 10:00:00 16,6 12,0 17,3 17,2 16,4 16,1 23 12 32 18 SW 1017,3 10 0 0,0
18.06.2018 09:00:00 16,2 12,1 16,9 17,1 16,1 16,1 21 11 31 17 SW 1017,3 9 54 0,0
18.06.2018 08:00:00 15,3 12,8 16,3 15,4 16,0 16,1 16 9 26 14 SSW 1017,4 8 60 0,0
18.06.2018 07:00:00 14,1 12,7 14,2 14,1 16,1 16,1 8 5 17 9 S 1017,4 10 10 0,0
18.06.2018 06:00:00 13,4 12,2 12,8 13,8 16,3 16,1 9 5 16 9 SSW 1017,5 11 3 0,0
18.06.2018 05:00:00 11,7 11,0 10,4 13,6 16,6 16,1 9 5 16 8 SSW 1017,4 10 0 0,0
18.06.2018 04:00:00 11,5 10,6 9,9 14,0 16,9 16,1 9 5 13 7 SSW 1017,3 8 0 0,0
18.06.2018 03:00:00 11,7 11,1 10,1 14,4 17,2 16,1 8 5 13 7 SW 1017,6 8 0 0,0
18.06.2018 02:00:00 12,4 11,4 11,2 14,8 17,6 16,1 10 6 14 7 SW 1017,5 11 0 0,0
18.06.2018 01:00:00 12,1 11,2 10,6 15,3 17,9 16,1 9 5 11 6 SW 1017,4 12 0 0,0
18.06.2018 00:00:00 12,8 11,4 11,2 16,0 18,2 16,1 8 5 16 9 SW 1017,2 16 0 0,0
17.06.2018 23:00:00 14,2 11,3 13,0 16,6 18,5 16,1 13 7 17 9 W 1016,8 24 0 0,0
17.06.2018 22:00:00 15,2 10,7 14,1 17,4 18,8 16,1 11 6 21 11 W 1016,7 32 11 0,0
17.06.2018 21:00:00 16,6 10,3 16,2 18,1 19,0 16,1 16 9 30 16 WSW 1016,3 27 23 0,0
17.06.2018 20:00:00 16,8 8,0 16,1 19,0 19,1 16,1 19 11 37 20 W 1016,0 26 38 0,0
17.06.2018 19:00:00 18,4 9,1 18,8 19,9 19,1 16,1 24 13 34 18 WSW 1015,5 7 60 0,0
17.06.2018 18:00:00 18,7 10,0 19,8 20,1 19,1 16,1 23 12 37 20 WSW 1015,3 6 56 0,0
17.06.2018 17:00:00 19,0 9,5 19,9 20,1 19,0 16,1 29 16 41 22 W 1015,0 6 36 0,0
17.06.2018 16:00:00 19,2 10,7 20,1 19,8 19,0 16,1 21 12 37 20 WSW 1014,5 11 15 0,0
17.06.2018 15:00:00 17,8 10,0 17,7 20,5 18,8 16,1 27 15 40 22 WSW 1014,0 17 21 0,0
17.06.2018 14:00:00 17,7 13,4 17,4 20,8 18,6 16,1 29 16 48 26 SW 1013,6 10 31 0,0
17.06.2018 13:00:00 18,6 13,2 20,5 19,9 18,5 16,1 30 16 41 22 SW 1013,3 6 18 0,0
17.06.2018 12:00:00 18,2 12,5 19,0 20,1 18,2 16,1 30 16 48 26 WSW 1012,9 13 26 0,0
17.06.2018 11:00:00 18,6 12,6 20,1 20,0 18,0 16,1 25 14 40 22 SW 1012,6 9 55 0,0
17.06.2018 10:00:00 17,6 12,7 19,2 18,9 17,7 16,1 24 13 37 20 SW 1012,7 3,1 55 0,0
17.06.2018 09:00:00 16,9 12,7 18,1 18,1 17,6 16,1 22 12 35 19 SW 1012,6 6 56 0,0
17.06.2018 08:00:00 16,1 14,1 17,1 17,1 17,6 16,1 16 9 23 12 SSW 1012,5 5 49 0,0
17.06.2018 07:00:00 14,8 13,6 14,4 16,2 17,8 16,1 7 4 13 7 SSW 1012,6 6 17 0,0
17.06.2018 06:00:00 14,3 13,3 13,6 16,3 18,0 16,1 9 5 14 8 SW 1012,5 6 0 0,0
17.06.2018 05:00:00 14,3 13,2 13,6 16,5 18,2 16,1 11 6 16 9 WSW 1012,7 7 0 0,7
17.06.2018 04:00:00 14,6 14,1 14,0 16,8 18,4 16,1 8 4 16 8 SW 1013,1 3,0 0 0,4
17.06.2018 03:00:00 15,0 14,5 14,4 17,0 18,7 16,1 8 5 27 15 WSW 1013,4 3,0 0 3,3
17.06.2018 02:00:00 16,0 15,5 15,5 17,3 18,9 16,1 13 7 17 9 W 1012,9 3,4 0 0,0
17.06.2018 01:00:00 14,6 14,4 13,9 17,6 19,2 16,1 7 4 8 5 WSW 1012,6 3,0 0 0,0
17.06.2018 00:00:00 15,2 15,1 14,3 18,2 19,4 16,1 6 3 7 4 W 1013,0 0,1 0 0,0
16.06.2018 23:00:00 16,7 16,4 14,5 19,0 19,6 16,1 2 1 6 3 SSE 1013,2 2,1 0 0,0
16.06.2018 22:00:00 17,5 16,9 16,6 19,5 19,8 16,1 3 2 8 4 SW 1013,2 4,3 0 0,0
16.06.2018 21:00:00 17,5 16,0 16,9 20,0 19,9 16,0 7 4 9 5 SW 1012,9 9 0 0,0
16.06.2018 20:00:00 17,1 15,2 16,5 20,4 20,0 16,0 10 5 31 17 S 1013,0 9 2 1,1
16.06.2018 19:00:00 18,6 15,7 18,8 21,4 19,9 16,0 10 5 18 10 ESE 1012,6 26 0 0,0
16.06.2018 18:00:00 19,6 16,4 20,4 21,8 19,8 16,0 9 5 21 11 SE 1012,5 12 10 0,0
16.06.2018 17:00:00 19,5 16,0 20,9 21,6 19,6 16,0 14 8 22 12 E 1012,9 17 11 0,0
16.06.2018 16:00:00 19,1 16,2 21,0 20,8 19,5 16,0 7 4 21 12 E 1013,7 13 0 0,0
16.06.2018 15:00:00 19,0 16,4 19,7 20,5 19,5 16,0 15 8 26 14 E 1013,8 20 0 7,8
16.06.2018 14:00:00 15,9 13,7 15,0 21,4 19,3 16,0 26 14 44 24 SE 1015,2 6 7 0,6
16.06.2018 13:00:00 19,4 15,7 22,4 21,3 19,0 16,0 29 15 37 20 E 1014,5 7 35 0,0
16.06.2018 12:00:00 18,2 14,7 19,6 19,9 18,9 16,0 27 14 34 18 ESE 1015,1 10 0 0,0
16.06.2018 11:00:00 17,6 13,9 17,9 20,3 18,7 16,0 24 13 34 19 SE 1015,4 12 16 0,0
16.06.2018 10:00:00 18,4 13,6 20,2 19,5 18,5 16,0 27 14 37 20 ESE 1015,5 8 21 0,0
16.06.2018 09:00:00 17,8 13,6 18,4 18,7 18,5 16,0 29 16 35 19 ESE 1015,9 11 11 0,0
16.06.2018 08:00:00 17,6 14,4 17,9 17,9 18,5 16,0 26 14 34 18 ESE 1015,8 14 0 0,0
16.06.2018 07:00:00 17,9 11,4 17,5 17,5 18,7 16,0 22 12 29 15 ESE 1016,0 22 0 0,0
16.06.2018 06:00:00 16,9 10,6 15,9 17,4 18,9 16,0 19 10 25 14 ESE 1016,5 31 0 0,0
16.06.2018 05:00:00 14,9 11,2 13,9 17,6 19,1 16,0 6 4 12 6 S 1017,1 19 0 0,0
16.06.2018 04:00:00 14,9 11,4 14,2 17,8 19,3 16,0 7 4 9 5 S 1017,3 23 0 0,0
16.06.2018 03:00:00 14,3 11,6 13,4 18,1 19,6 16,0 5 3 10 5 S 1017,1 19 0 0,0
16.06.2018 02:00:00 16,6 11,2 15,5 18,2 19,9 16,0 7 4 20 11 S 1017,4 23 0 0,0
16.06.2018 01:00:00 16,4 11,2 14,5 18,6 20,3 16,0 11 6 16 9 SE 1017,2 26 0 0,0
16.06.2018 00:00:00 16,2 10,8 14,2 19,2 20,7 16,0 12 7 16 9 SE 1017,3 27 0 0,0
15.06.2018 23:00:00 16,2 10,8 13,8 20,0 21,0 16,0 10 5 16 9 SSE 1017,4 26 0 0,0
15.06.2018 22:00:00 15,1 11,5 12,0 21,2 21,3 16,0 5 3 10 5 S 1017,4 22 3 0,0
15.06.2018 21:00:00 16,8 10,2 15,7 22,4 21,5 16,0 9 5 12 7 SE 1017,4 24 41 0,0
15.06.2018 20:00:00 18,0 10,7 19,0 23,3 21,5 16,0 9 5 12 6 SE 1017,3 25 38 0,0
15.06.2018 19:00:00 17,8 10,9 18,3 24,2 21,5 16,0 7 4 11 6 SE 1017,5 30 6 0,0
15.06.2018 18:00:00 18,3 11,2 20,2 25,2 21,2 16,0 9 5 14 8 E 1017,6 31 30 0,0
15.06.2018 17:00:00 18,7 11,1 21,5 25,6 20,9 16,0 11 6 14 8 E 1017,6 24 31 0,0

tt = Température de l'air
td = dewpoint
tt 5cm = Température de l'air 5cm
tt -5cm = Température de l'air -5cm
tt -20cm = Température de l'air -20cm
tt -100cm = Température de l'air -100cm
ff = Vitesse du vent
fx = gusts
dd = Direction du vent
ppp = reduced air pressure
vv = visibility
sd = Ensoleillement
rr = Quantités de précipitations

stations d'obs. à proximité